Simultaneous Nadir Overpasses (SNOs) Predictions

Prediction of SNOs between GOES-16 and METOP-B Satellite Orbit:

Table of predicted SNOs for the next 14.0 days since TLE Epoch: 4/23/2022
Index Date Time (GOES-16) GOES-16 Lat,Lon METOP-B Lat,Lon Distance(km) Time Diff (sec)
1 04/23/2022 14:31:24 0.06, -75.23 0.12, -75.63 45.57 80
2 04/26/2022 02:32:24 -0.05, -75.20 -0.06, -75.22 2.69 80
3 04/28/2022 14:30:36 0.05, -75.23 -0.04, -74.79 50.42 80
4 04/30/2022 02:49:36 -0.05, -75.22 -0.96, -79.39 474.26 80
5 05/01/2022 02:26:16 -0.05, -75.23 0.11, -74.38 95.87 80
6 05/02/2022 14:45:08 0.04, -75.26 0.84, -78.96 419.95 80
7 05/03/2022 14:27:08 0.04, -75.27 -0.23, -73.95 150.39 80
8 05/05/2022 02:46:08 -0.04, -75.27 -0.76, -78.55 373.69 80
9 05/06/2022 02:22:48 -0.03, -75.28 0.37, -73.56 196.78 80
